Location: Trenton (NJ)
(40.2170°N, 74.7430°W)
Time: 15:23:28
(UTC-04:00)

Tiangong 2 - Visible Passes

Search period start: 20 June 2018 00:00
Search period end: 30 June 2018 00:00
Orbit: 291 x 297 km, 42.8° (Epoch: 20 June)

Date Brightness Start Highest point End Pass type
(mag) Time Alt. Az. Time Alt. Az. Time Alt. Az.
25 Jun 3.1 04:40:47 10° S 04:41:59 13° SE 04:43:12 10° ESE visible
26 Jun 2.2 04:45:26 10° SSW 04:47:33 24° SSE 04:49:42 10° E visible
27 Jun 1.0 04:50:39 10° SW 04:53:05 46° SSE 04:55:34 10° E visible
28 Jun 3.4 03:25:26 11° ESE 03:25:26 11° ESE 03:25:44 10° ESE visible
28 Jun 0.5 04:56:04 10° WSW 04:58:36 86° SSE 05:01:10 10° ENE visible
29 Jun 2.5 03:30:26 21° ESE 03:30:26 21° ESE 03:31:47 10° E visible
